Location: Burgwalden
(48.2830°N, 10.7576°E)
Time: 01:14:57
(UTC+00:00)

NOSS 7 (E) - Pass Details

Date: 26 September 2023
Orbit: 388 x 1706 km, 63.3° (Epoch: 04 December)

Event Time Altitude Azimuth Distance (km) Brightness Sun altitude
Exits shadow 02:23:09 18° 23° (NNE) 1,092 6.9 -27.0°
Drops below altitude 10° 02:26:03 10° 82° (E) 1,570 8.0 -26.6°
Enters shadow 03:49:29 -42° 319° (NW) 9,629 11.0 -13.9°
Maximum altitude 04:13:03 45° 233° (SW) 632 4.7 -10.0°
